Home   Weather   Columbus Township Park   Past weeks
Flag for USA

Past Weather in Columbus Township Park, Michigan, USA — Yesterday and Last 2 Weeks

Now
59 °F

Fog.


Feels Like: 60 °F
Forecast: 68 / 51 °F
Wind: 3 mph from Southeast

Location: Schoolcraft County Airport
Current Time: Sep 23, 2020 at 12:52:08 pm
Latest Report: Sep 23, 2020 at 12:15 pm
Visibility: 1 mi
Pressure29.98 "Hg
Humidity: 97%
Dew Point: 58 °F
Location of Columbus Township ParkLocation

Past Weather in Columbus Township Park — Graph

°F

Columbus Township Park Temperature Yesterday

Maximum temperature yesterday: 68 °F (at 11:35 am)
Minimum temperature yesterday: 48 °F (at 11:55 pm)
Average temperature yesterday: 60 °F

High & Low Weather Summary for the Past Weeks

 TemperatureHumidityPressure
High68 °F (Sep 22, 11:35 am)100% (Sep 10, 6:15 am)30.44 "Hg (Sep 10, 6:15 am)
Low29 °F (Sep 18, 5:35 am)31% (Sep 18, 6:15 pm)29.72 "Hg (Sep 13, 2:35 am)
Average53 °F80%30.21 "Hg
* Reported Sep 8 11:35 am — Sep 23 11:35 am, Columbus Township Park. Weather by CustomWeather, © 2020

Note: Actual official high and low records may vary slightly from our data, if they occured in-between our weather recording intervals... More about our weather records

Columbus Township Park Weather History for the Previous 24 Hours

Scroll right to see more
 ConditionsComfort  
Time TempWeatherWind HumidityBarometerVisibility
11:35 am
Wed, Sep 23
58 °FFog.3 mph98%29.98 "Hg0 mi
11:15 am57 °FFog.3 mph97%29.98 "Hg0 mi
10:55 am57 °FFog.3 mph97%29.98 "Hg0 mi
10:35 am56 °FFog.No wind98%29.98 "Hg0 mi
10:15 am56 °FFog.3 mph97%29.99 "Hg0 mi
9:35 am53 °FFog.No wind97%29.99 "Hg0 mi
9:15 am51 °FFog.No wind97%29.98 "Hg0 mi
8:55 am49 °FFog.No wind97%29.98 "Hg0 mi
8:35 am47 °FFog.No wind97%29.98 "Hg0 mi
8:15 am44 °FFog.No wind97%29.98 "Hg0 mi
7:55 am44 °FFog.No wind98%29.97 "Hg0 mi
7:35 am45 °FFog.No wind97%29.97 "Hg0 mi
7:15 am45 °FFog.No wind97%29.97 "Hg0 mi
6:55 am45 °FFog.No wind97%29.97 "Hg1 mi
6:35 am44 °FFog.5 mph97%29.97 "Hg1 mi
6:15 am45 °FFog.No wind97%29.97 "Hg2 mi
5:55 am46 °FFog.5 mph97%29.97 "Hg1 mi
5:35 am46 °FFog.No wind97%29.97 "Hg1 mi
5:15 am45 °FFog.No wind97%29.96 "Hg0 mi
4:55 am45 °FFog.No wind97%29.97 "Hg0 mi
4:35 am45 °FFog.No wind97%29.97 "Hg1 mi
3:55 am46 °FFog.No wind97%29.98 "Hg1 mi
3:35 am46 °FFog.No wind97%29.98 "Hg1 mi
3:15 am46 °FFog.No wind97%29.98 "Hg1 mi
2:55 am46 °FFog.No wind97%29.98 "Hg1 mi
2:35 am46 °FFog.No wind97%29.98 "Hg1 mi
2:15 am47 °FFog.No wind97%29.99 "Hg0 mi
1:55 am47 °FFog.No wind97%29.99 "Hg1 mi
1:35 am46 °FFog.No wind97%29.99 "Hg2 mi
1:15 am49 °FFog.No wind97%30.00 "Hg1 mi
12:55 am48 °FFog.No wind97%30.00 "Hg0 mi
12:35 am49 °FFog.No wind97%30.01 "Hg1 mi
12:15 am49 °FFog.No wind97%30.01 "Hg1 mi
11:55 pm
Tue, Sep 22
48 °FFog.No wind97%30.01 "Hg1 mi
11:35 pm49 °FFog.No wind97%30.00 "Hg1 mi
11:15 pm50 °FFog.No wind97%30.00 "Hg0 mi
10:55 pm50 °FFog.No wind97%30.01 "Hg1 mi
10:35 pm52 °FFog.No wind97%30.02 "Hg1 mi
10:15 pm51 °FClear.No wind97%30.02 "Hg7 mi
9:35 pm53 °FFog.No wind97%30.02 "Hg3 mi
8:55 pm54 °FClear.No wind95%30.03 "Hg7 mi
8:35 pm55 °FClear.No wind95%30.02 "Hg7 mi
8:15 pm58 °FClear.No wind93%30.02 "Hg10 mi
7:55 pm58 °FClear.No wind91%30.01 "Hg10 mi
7:15 pm61 °FSunny.No wind85%30.02 "Hg10 mi
6:55 pm62 °FSunny.6 mph85%30.01 "Hg10 mi
6:35 pm62 °FSunny.7 mph83%30.01 "Hg10 mi
6:15 pm63 °FSunny.7 mph83%30.01 "Hg10 mi
5:55 pm64 °FSunny.8 mph79%30.01 "Hg10 mi
5:35 pm64 °FSunny.9 mph80%30.02 "Hg10 mi
5:15 pm64 °FSunny.12 mph78%30.02 "Hg10 mi
4:55 pm64 °FSunny.10 mph80%30.02 "Hg10 mi
4:35 pm64 °FSunny.6 mph78%30.02 "Hg10 mi
4:15 pm65 °FSunny.7 mph77%30.03 "Hg10 mi
3:35 pm65 °FSunny.10 mph75%30.04 "Hg10 mi
3:15 pm65 °FSunny.8 mph73%30.05 "Hg10 mi
2:35 pm66 °FSunny.9 mph71%30.06 "Hg10 mi
2:15 pm68 °FSunny.7 mph67%30.06 "Hg10 mi
1:55 pm68 °FSunny.6 mph65%30.06 "Hg10 mi
1:35 pm68 °FSunny.6 mph67%30.07 "Hg10 mi
1:15 pm68 °FSunny.7 mph65%30.08 "Hg10 mi
12:55 pm68 °FSunny.5 mph65%30.08 "Hg10 mi
12:35 pm67 °FSunny.6 mph66%30.08 "Hg10 mi
12:15 pm67 °FSunny.6 mph64%30.08 "Hg10 mi
Weather by CustomWeather, © 2020

See weather overview